Warrenton, VA

4:51 AM EDT on March 23, 2017 (GMT -0400)
Warrenton

Weather History for KHWY - February, 2013

Change the Weather History Date:

Thursday, February 28, 2013

  Actual Average (KHEF) Record (KHEF)
Temperature  
Mean Temperature 42 °F -  
Max Temperature 48 °F 48 °F 71 °F (2011)
Min Temperature 37 °F 26 °F 10 °F (2015)
Degree Days  
Heating Degree Days 23    
Moisture  
Dew Point 35 °F    
Average Humidity 73    
Maximum Humidity 99    
Minimum Humidity 54    
Precipitation  
Precipitation 0.00 in - - ()
Sea Level Pressure  
Sea Level Pressure 29.68 in    
Wind  
Wind Speed 4 mph (West)    
Max Wind Speed 14 mph    
Max Gust Speed 17 mph    
Visibility 10 miles    
Events      
Averages and records for this station are not official NWS values.
T = Trace of Precipitation, MM = Missing Value Source: NWS Daily Summary

Daily Weather History Graph

Daily Weather History Graph

Search for Another Location

Airport or City:

Trip Planner

Search our weather history database for the weather conditions in past years. The results will help you decide how hot, cold, wet, or windy it might be!

Date:

Astronomy

Feb. 28, 2013 Rise Set
Actual Time 6:44 AM EST 6:03 PM EST
Civil Twilight 6:17 AM EST 6:29 PM EST
Nautical Twilight 5:46 AM EST 7:00 PM EST
Astronomical Twilight 5:16 AM EST 7:31 PM EST
Moon 9:24 PM EST (2/28) 7:55 AM EST (2/28)
Length of Visible Light 12h 12m
Length of Day
11h 18m
Waning Gibbous, 91% of the Moon is Illuminated
Feb 28
Waning Gibbous
Mar 4
Last Quarter
Mar 11
New
Mar 19
First Quarter
Mar 27
Full

Hourly Weather History & Observations

Time (EST) Temp. Windchill Dew Point Humidity Pressure Visibility Wind Dir Wind Speed Gust Speed Precip Events Conditions
12:15 AM 42.1 °F - 40.6 °F 95% 29.64 in 10.0 mi Calm Calm - N/A   Overcast
12:35 AM 42.4 °F 40.7 °F 40.3 °F 92% 29.64 in 10.0 mi SE 3.5 mph - N/A   Overcast
12:55 AM 42.8 °F - 40.3 °F 91% 29.63 in 10.0 mi Calm Calm - N/A   Overcast
1:15 AM 41.4 °F 39.4 °F 41.0 °F 99% 29.63 in 10.0 mi NNW 3.5 mph - N/A   Overcast
1:35 AM 41.5 °F - 40.5 °F 96% 29.64 in 10.0 mi Calm Calm - N/A   Overcast
1:55 AM 41.5 °F - 40.5 °F 96% 29.64 in 10.0 mi Calm Calm - N/A   Overcast
2:15 AM 41.7 °F - 40.6 °F 96% 29.63 in 10.0 mi Calm Calm - N/A   Overcast
2:35 AM 43.3 °F - 40.1 °F 88% 29.63 in 10.0 mi Calm Calm - N/A   Overcast
2:55 AM 42.1 °F - 40.5 °F 94% 29.63 in 10.0 mi Calm Calm - N/A   Overcast
3:15 AM 41.5 °F - 40.6 °F 97% 29.63 in 10.0 mi Calm Calm - N/A   Overcast
3:35 AM 42.4 °F 39.6 °F 40.3 °F 92% 29.63 in 10.0 mi NNW 4.6 mph - N/A   Overcast
3:55 AM 44.6 °F 42.2 °F 39.7 °F 83% 29.63 in 10.0 mi NW 4.6 mph - N/A   Overcast
4:15 AM 44.6 °F 42.2 °F 40.1 °F 84% 29.63 in 10.0 mi NNW 4.6 mph - N/A   Overcast
4:35 AM 43.9 °F 42.3 °F 40.3 °F 87% 29.64 in 10.0 mi NNW 3.5 mph - N/A   Overcast
4:55 AM 44.6 °F 41.4 °F 39.6 °F 82% 29.65 in 10.0 mi North 5.8 mph - N/A   Light Drizzle
5:15 AM 44.1 °F 41.5 °F 39.6 °F 84% 29.65 in 10.0 mi NNW 4.6 mph - N/A   Overcast
5:35 AM 43.9 °F 39.3 °F 37.9 °F 80% 29.67 in 10.0 mi WNW 8.1 mph - N/A   Overcast
5:55 AM 43.2 °F - 37.4 °F 80% 29.66 in 10.0 mi Calm Calm - N/A   Scattered Clouds
6:15 AM 41.9 °F - 37.4 °F 84% 29.67 in 10.0 mi Calm Calm - N/A   Mostly Cloudy
6:35 AM 39.9 °F - 37.8 °F 92% 29.67 in 10.0 mi Calm Calm - N/A   Mostly Cloudy
6:55 AM 37.0 °F 33.3 °F 35.4 °F 94% 29.67 in 10.0 mi WNW 4.6 mph - N/A   Scattered Clouds
7:15 AM 37.0 °F 32.4 °F 34.3 °F 90% 29.68 in 10.0 mi WNW 5.8 mph - N/A   Clear
7:35 AM 41.4 °F 36.8 °F 35.2 °F 79% 29.68 in 10.0 mi NW 6.9 mph - N/A   Clear
7:55 AM 43.5 °F 39.4 °F 34.9 °F 72% 29.68 in 10.0 mi NNW 6.9 mph - N/A   Clear
8:15 AM 44.1 °F 38.6 °F 34.5 °F 69% 29.68 in 10.0 mi NW 10.4 mph - N/A   Clear
8:35 AM 45.1 °F 40.8 °F 34.2 °F 65% 29.69 in 10.0 mi NW 8.1 mph - N/A   Clear
8:55 AM 45.5 °F 40.3 °F 33.1 °F 62% 29.68 in 10.0 mi WNW 10.4 mph - N/A   Clear
9:15 AM 46.4 °F 43.5 °F 32.2 °F 58% 29.68 in 10.0 mi WNW 5.8 mph - N/A   Clear
9:35 AM 46.4 °F 44.3 °F 32.4 °F 58% 29.68 in 10.0 mi West 4.6 mph - N/A   Clear
9:55 AM 46.4 °F 45.2 °F 32.0 °F 57% 29.68 in 10.0 mi West 3.5 mph - N/A   Scattered Clouds
10:15 AM 47.3 °F - 31.8 °F 55% 29.67 in 10.0 mi West 5.8 mph - N/A   Mostly Cloudy
10:35 AM 47.7 °F - 31.6 °F 54% 29.67 in 10.0 mi West 4.6 mph - N/A   Scattered Clouds
10:55 AM 47.7 °F - 32.2 °F 55% 29.67 in 10.0 mi SW 8.1 mph - N/A   Mostly Cloudy
11:15 AM 46.6 °F - 32.2 °F 57% 29.67 in 10.0 mi SW 9.2 mph - N/A   Overcast
11:35 AM 46.4 °F 42.4 °F 31.8 °F 57% 29.68 in 10.0 mi SW 8.1 mph - N/A   Overcast
11:55 AM 46.4 °F 41.9 °F 31.6 °F 56% 29.68 in 10.0 mi SW 9.2 mph - N/A   Overcast
12:15 PM 46.2 °F 41.7 °F 32.4 °F 58% 29.67 in 10.0 mi SW 9.2 mph - N/A   Overcast
12:35 PM 47.5 °F - 34.2 °F 60% 29.67 in 10.0 mi WSW 6.9 mph - N/A   Overcast
12:55 PM 46.9 °F - 34.3 °F 62% 29.67 in 10.0 mi WSW 6.9 mph - N/A   Overcast
1:15 PM 46.4 °F 43.5 °F 34.5 °F 63% 29.67 in 10.0 mi West 5.8 mph 9.2 mph N/A   Overcast
1:55 PM 44.8 °F 39.9 °F 36.7 °F 73% 29.67 in 10.0 mi WNW 9.2 mph 17.3 mph N/A   Overcast
2:15 PM 45.5 °F 39.9 °F 37.2 °F 73% 29.68 in 10.0 mi West 11.5 mph - N/A   Overcast
2:35 PM 44.8 °F 41.6 °F 37.6 °F 76% 29.67 in 10.0 mi West 5.8 mph - N/A   Mostly Cloudy
2:55 PM 46.6 °F - 36.9 °F 69% 29.67 in 10.0 mi SW 6.9 mph - N/A   Mostly Cloudy
3:15 PM 46.2 °F 43.3 °F 34.0 °F 62% 29.67 in 10.0 mi WSW 5.8 mph - N/A   Mostly Cloudy
3:35 PM 45.7 °F 43.4 °F 34.5 °F 65% 29.67 in 10.0 mi WSW 4.6 mph - N/A   Mostly Cloudy
3:55 PM 45.9 °F - 35.2 °F 66% 29.66 in 10.0 mi Calm Calm - N/A   Overcast
4:35 PM 46.8 °F - 33.3 °F 59% 29.65 in 10.0 mi SW 3.5 mph - N/A   Overcast
4:55 PM 46.6 °F - 32.7 °F 59% 29.65 in 10.0 mi West 6.9 mph - N/A   Overcast
5:15 PM 46.4 °F 41.5 °F 32.4 °F 58% 29.67 in 10.0 mi West 10.4 mph - N/A   Overcast
5:35 PM 45.7 °F 41.0 °F 32.2 °F 59% 29.67 in 10.0 mi West 9.2 mph - N/A   Overcast
5:55 PM 44.6 °F 41.4 °F 32.2 °F 62% 29.69 in 10.0 mi West 5.8 mph - N/A   Overcast
6:15 PM 43.7 °F 41.1 °F 32.5 °F 65% 29.69 in 10.0 mi West 4.6 mph - N/A   Mostly Cloudy
6:35 PM 43.0 °F 40.3 °F 32.4 °F 66% 29.70 in 10.0 mi West 4.6 mph - N/A   Overcast
6:55 PM 43.7 °F 40.3 °F 32.2 °F 64% 29.71 in 10.0 mi West 5.8 mph - N/A   Overcast
7:15 PM 43.9 °F 39.9 °F 32.2 °F 63% 29.72 in 10.0 mi West 6.9 mph - N/A   Overcast
7:35 PM 43.2 °F 39.7 °F 33.1 °F 68% 29.73 in 10.0 mi West 5.8 mph - N/A   Overcast
7:55 PM 43.0 °F 40.3 °F 33.1 °F 68% 29.73 in 10.0 mi West 4.6 mph - N/A   Overcast
8:15 PM 43.2 °F 39.0 °F 32.5 °F 66% 29.73 in 10.0 mi West 6.9 mph - N/A   Overcast
8:35 PM 42.8 °F 39.3 °F 33.1 °F 69% 29.74 in 10.0 mi West 5.8 mph - N/A   Overcast
8:55 PM 42.8 °F 38.6 °F 33.1 °F 69% 29.74 in 10.0 mi West 6.9 mph - N/A   Overcast
9:15 PM 43.0 °F - 33.4 °F 69% 29.74 in 10.0 mi Calm Calm - N/A   Overcast
9:55 PM 42.8 °F - 33.4 °F 70% 29.74 in 10.0 mi Calm Calm - N/A   Overcast
10:15 PM 42.8 °F 39.3 °F 34.0 °F 71% 29.74 in 10.0 mi West 5.8 mph - N/A   Overcast
10:35 PM 42.8 °F 41.1 °F 33.4 °F 70% 29.74 in 10.0 mi West 3.5 mph - N/A   Overcast
10:55 PM 42.8 °F 38.6 °F 33.4 °F 70% 29.73 in 10.0 mi WNW 6.9 mph - N/A   Overcast
11:15 PM 43.3 °F 36.8 °F 33.3 °F 68% 29.74 in 10.0 mi West 12.7 mph 16.1 mph N/A   Overcast
11:35 PM 43.7 °F 40.3 °F 33.4 °F 67% 29.74 in 10.0 mi WNW 5.8 mph 16.1 mph N/A   Overcast
11:55 PM 43.7 °F 36.9 °F 33.4 °F 67% 29.74 in 10.0 mi NW 13.8 mph - N/A   Overcast